{"data":{"norad_id":62705,"intl_designator":"2025-009DA","name":"ICEYE-X45","alt_names":[],"object_type":"PAYLOAD","status":"ACTIVE","operator":null,"country":"US","launch_date":"2025-01-14","launch_site_code":"AFWTR","launch_vehicle":null,"mission":null,"orbit_class":"UNKNOWN","rcs_meters":null,"size_class":null,"mass_kg":null,"dimensions":null,"purposes":[],"wikipedia_slug":null,"has_3d_model":false,"image_url":null,"decayed_at":null,"tle_current":{"epoch":"2026-05-25T04:40:32.121408Z","epoch_age_seconds":65133,"freshness":"FRESH","line1":"1 62705U 25009DA  26145.19481622  .00008764  00000+0  69330-3 0  9995","line2":"2 62705  97.8252 231.7120 0001094  92.6146 267.5203 15.00866269 74237","mean_motion":15.00866269,"eccentricity":0.0001094,"inclination_deg":97.8252,"raan_deg":231.712,"arg_perigee_deg":92.6146,"mean_anomaly_deg":267.5203,"bstar":0.0006933,"rev_number":7423,"period_min":95.944590783524,"perigee_km":563.46424108468,"apogee_km":564.98322961358,"semimajor_km":6942.3607353491,"source":"CELESTRAK","updated_at":"2026-05-25T13:38:03.205570Z"}}}